Погода в Стерлинге

Великобритания     56°07′01″N   3°56′08″W
темп.,
°C
ветер,
м/с
пор.,
м/с
влажн.,
%
обл.,
%
осадки,
мм/ч
давл.,
гПа
погр.,
м
18 апреля, вс
вс1801:00+4ю1180100 0.0 102624
04:00+4ю1276100 0.0 102542
07:00+5ююз127693 0.0 102482
10:00+6юз1570100 0.0 1025868
13:00+7ю2571100 0.1 1025795
16:00+7юз1370100 0.0 1024430
19:00+7юз1176100 0.0 102470
22:00+6всв1178100 0.0 102511
19 апреля, пн
пн1901:00+5в118367 0.0 102419
04:00+3ююв1190100 0.0 102314
07:00+4юв1187100 0.0 102222
10:00+9ююз2468100 0.0 1021513
13:00+12ююз4558100 0.0 10201434
16:00+13юз4655100 0.0 10181487
19:00+9з2472100 0.1 1019454
22:00+7зюз1279100 0.0 101958
20 апреля, вт
вт2001:00+6зюз2382100 0.0 101990
04:00+5зюз1489100 0.4 1018295
07:00+5юз1293100 0.8 1018198
10:00+6зюз129084 0.1 1019320
13:00+9зсз237782 0.2 1020672
16:00+12сз135588 0.1 10191581
19:00+8всв358142 0.3 1021241
22:00+6всв239060 0.1 1023111
21 апреля, ср
ср2101:00+4с229213 0.1 102441
04:00+2ссв11875 0.0 102424
07:00+3ссв11805 0.0 102535
10:00+8всв22605 0.0 1025644
13:00+12ссв115111 0.0 10251384
16:00+13ссв124414 0.0 10241735
19:00+10юв226398 0.0 1025540
22:00+8всв127183 0.0 1026105
22 апреля, чт
чт2201:00+4всв2284100 0.0 102645
04:00+3св1288100 0.0 102632
07:00+3всв1287100 0.0 102767
10:00+9вюв126617 0.0 1026441
13:00+14ю244823 0.0 10251703
16:00+14ю45464 0.0 10251795
19:00+12ю36575 0.0 1024443
22:00+7всв11815 0.0 102611